Temperature
17 17 17 17 17 17 17 17 17 16 17 17 17 17 17 17 17 17 17 17 17 17 17 17 17 17 16 16 16 16 16 16 16 16 16 16 15 15
17 17 17 17 17 17 17 17 17 16 16 17 17 17 17 17 17 17 17 17 17 17 17 17 17 16 16 16 16 16 16 16 15 15 15 15 15 15
17 17 17 17 17 17 17 17 17 16 16 17 17 17 17 17 16 16 16 16 16 16 16 16 16 16 16 16 16 16 15 15 15 15 15 15 15 15
17 17 17 17 17 17 17 17 16 16 16 16 16 16 16 16 16 16 16 16 16 16 16 16 16 16 16 16 16 15 15 15 15 15 15 15 15 15
17 17 17 17 17 17 17 16 16 16 16 16 16 16 16 16 16 16 16 16 16 16 16 16 16 16 16 15 15 15 15 15 15 15 15 14 14 14
17 17 17 17 16 16 16 16 16 16 16 16 16 16 15 15 15 15 15 15 15 15 15 15 15 15 15 15 15 15 15 15 15 15 14 14 14 14
17 17 16 16 16 16 16 16 16 16 15 15 15 15 15 15 15 15 15 15 15 15 15 15 15 15 15 15 15 15 15 14 14 14 14 14 14 14
16 16 16 16 16 16 15 15 15 15 15 15 15 15 15 14 14 14 14 14 14 14 14 14 14 14 14 14 14 14 14 14 14 14 14 14 13 13
16 16 16 16 16 15 15 15 15 15 15 15 14 14 14 14 14 14 14 14 14 14 14 14 14 14 14 14 14 14 14 14 13 13 13 13 13 13
15 15 15 15 15 15 15 15 15 15 15 14 14 14 14 14 14 13 13 13 13 13 13 13 13 14 14 14 13 13 13 13 13 13 13 13 13 12
15 15 15 15 15 14 14 14 14 14 14 14 14 14 13 13 13 13 13 13 13 13 13 13 13 13 13 13 13 13 13 13 13 12 12 12 12 12
15 14 14 14 14 14 14 14 14 14 14 14 13 13 13 13 13 13 13 12 12 12 12 12 12 12 12 12 12 12 12 12 12 12 12 12 12 11
14 14 14 14 13 13 13 13 13 13 13 13 13 13 13 13 13 12 12 12 12 12 12 11 11 11 11 11 11 11 11 11 11 11 11 11 11 11
14 14 13 13 13 13 13 13 13 13 13 12 12 12 12 12 12 12 12 12 11 11 11 11 11 11 11 10 10 11 11 11 11 11 11 11 11 11
13 13 13 13 12 13 13 12 12 12 12 12 12 12 12 11 11 11 11 11 11 11 11 11 11 10 10 10 10 10 10 10 10 10 10 10 10 10
13 13 12 12 12 12 12 12 12 12 12 11 11 11 11 11 11 11 11 10 10 10 10 10 10 10 10 10 10 9 10 10 10 10 10 10 10 10
12 12 12 12 12 12 11 11 11 11 11 11 11 11 11 11 10 10 10 10 10 10 10 10 10 10 9 9 9 9 9 9 9 9 9 9 9 9
12 12 12 11 11 11 11 11 11 11 11 11 10 10 10 10 10 10 9 9 9 9 9 9 9 9 9 9 9 9 9 9 9 9 9 9 9 9
11 11 11 11 11 11 11 11 11 10 10 10 10 10 10 9 9 9 9 9 9 9 9 9 9 8 8 8 8 9 9 9 8 8 8 8 9 9
11 11 11 11 11 10 10 10 10 10 10 10 9 9 9 9 9 9 9 8 8 8 8 8 8 8 8 8 8 8 8 8 8 8 8 8 8 9
10 10 10 10 10 10 10 10 10 10 9 9 9 9 9 8 8 8 8 8 8 8 8 8 8 8 8 7 7 7 8 8 8 8 8 8 8 8
9 9 9 9 9 9 9 9 9 9 9 9 8 8 8 8 8 8 8 8 8 8 8 8 7 7 7 7 7 7 8 8 8 8 8 8 8 8
9 9 9 9 9 9 9 9 9 9 8 8 8 8 8 8 8 8 8 8 7 7 7 7 7 7 7 7 7 7 7 7 7 7 8 8 8 8
Wind_Speed
7 7 6 5 5 5 5 4 4 4 5 3 2 1 2 3 4 3 4 4 5 6 6 6 7 7 7 8 8 8 8 8 8 9 9 10 10 9
5 6 6 5 4 4 4 4 4 4 5 3 3 3 3 3 3 3 4 4 4 5 6 6 6 7 7 8 8 8 7 7 8 8 9 9 10 10
6 6 6 5 4 4 4 4 4 4 6 5 2 3 3 3 3 3 3 3 3 4 5 6 7 7 7 7 7 8 8 7 7 8 8 9 9 10
6 6 6 5 5 4 4 5 5 5 5 6 4 2 3 3 3 3 3 3 3 4 6 6 6 7 7 7 8 7 8 7 7 8 8 8 9 9
6 7 6 6 6 5 5 5 5 4 4 4 4 2 2 2 2 3 3 3 4 4 5 6 6 6 7 7 8 8 8 8 7 7 8 8 8 8
6 6 6 6 6 6 5 6 5 4 4 4 3 3 3 2 2 3 3 3 3 4 4 4 5 6 7 7 8 8 8 8 8 8 8 8 8 8
5 5 5 6 6 6 5 5 4 4 3 3 4 3 3 3 3 3 4 4 4 3 3 3 3 3 4 6 7 8 8 9 8 8 8 8 8 7
4 3 3 3 4 4 5 5 5 5 5 4 4 4 5 4 4 4 3 3 3 2 2 4 3 4 4 4 6 8 9 9 9 9 9 8 8 7
3 2 2 1 2 2 2 3 3 4 5 5 5 5 5 4 4 5 4 4 5 2 2 4 3 4 4 5 7 8 8 9 9 9 9 9 8 7
3 3 3 2 1 2 1 2 2 3 4 4 5 6 6 5 5 5 5 4 3 2 3 3 3 4 4 4 6 7 8 8 8 8 8 8 8 7
3 3 3 3 2 2 2 2 3 3 2 3 3 4 4 4 3 2 2 2 4 3 3 3 3 3 4 3 3 5 6 7 7 7 7 8 8 7
2 2 3 3 3 2 3 3 4 4 3 3 3 3 3 2 3 4 4 3 3 3 3 3 2 2 3 2 2 3 4 5 6 7 7 7 7 5
3 3 2 4 4 4 4 5 5 4 2 2 2 3 2 2 2 2 3 4 4 3 2 2 2 2 2 2 2 3 3 3 3 4 6 7 8 7
4 3 3 3 4 3 3 4 4 2 1 1 2 2 2 2 2 2 2 3 3 4 3 3 3 3 2 3 3 3 3 3 3 3 3 5 7 8
3 3 3 3 2 2 2 2 2 2 1 1 2 2 2 2 2 2 2 2 2 3 2 3 3 3 3 4 3 3 4 4 3 3 3 4 4 4
2 2 2 1 1 1 0 1 1 1 2 3 3 2 1 1 1 1 1 2 2 3 3 2 3 2 3 4 4 4 4 3 3 4 3 4 4 6
3 1 1 1 1 1 1 0 1 1 2 2 2 2 2 2 2 2 1 1 2 3 3 3 3 2 3 3 4 5 5 4 4 4 3 4 5 6
4 2 2 2 2 2 2 1 1 1 2 2 2 2 2 2 2 2 2 2 3 3 3 3 2 2 3 3 4 6 5 5 4 3 4 4 6 6
3 2 2 3 2 2 2 1 1 1 1 2 2 2 2 2 2 2 2 2 3 4 4 3 3 2 4 6 5 4 5 4 3 3 4 5 6 6
1 2 2 2 2 2 2 2 1 1 1 1 2 2 2 2 2 3 3 3 3 4 4 4 3 3 4 6 5 5 5 5 4 4 4 4 4 5
1 1 1 1 1 1 1 1 2 2 2 2 2 2 2 2 2 3 3 3 4 3 4 5 5 5 4 3 4 4 5 4 5 4 4 3 3 3
1 1 1 1 1 1 1 1 1 1 1 2 2 2 2 2 3 4 4 3 4 4 5 5 5 3 2 3 5 6 6 5 4 4 4 4 3 4
1 1 1 0 1 1 1 1 1 2 2 2 2 2 2 2 3 3 4 4 4 4 4 4 3 2 3 3 4 5 5 5 3 3 3 4 6 7
Wind_Direction
229 228 229 230 220 217 209 204 217 265 278 265 262 283 280 276 268 259 258 263 258 252 248 247 247 244 241 235 234 238 238 235 235 238 239 236 234 235
227 226 230 230 221 215 211 210 212 227 258 261 248 276 291 282 282 268 263 261 254 254 251 247 244 240 238 235 232 231 232 235 236 236 235 234 234 235
233 227 231 221 217 220 212 211 217 217 247 270 256 276 273 277 299 294 283 268 260 253 250 244 241 239 238 236 233 231 231 233 235 236 237 236 235 235
235 228 231 225 219 219 215 221 224 219 229 259 270 269 259 261 269 276 280 272 261 256 253 249 243 242 241 239 236 233 233 233 236 239 238 236 234 234
233 227 230 220 222 220 217 225 230 227 222 239 261 264 269 262 267 275 273 271 271 262 257 254 248 247 244 241 238 236 235 233 236 241 240 237 234 233
234 231 231 224 224 222 219 220 220 221 219 229 253 266 265 263 251 262 276 269 274 273 263 257 252 249 245 243 243 241 239 235 236 239 238 233 228 225
243 240 238 229 223 221 223 215 208 215 220 230 246 255 254 247 250 247 264 276 272 250 259 264 264 262 254 247 243 241 237 235 236 237 235 231 226 222
236 244 246 234 224 218 218 211 202 211 218 222 238 247 255 250 253 254 258 267 271 234 242 265 252 263 265 253 248 241 238 235 232 231 228 225 222 223
215 214 231 225 203 224 230 227 228 225 210 210 229 242 247 243 242 252 247 248 257 250 231 264 255 268 270 261 250 243 239 236 234 230 224 219 216 212
208 200 202 222 211 198 218 246 256 249 238 228 235 245 247 245 232 237 247 256 265 251 221 253 265 275 285 272 256 246 240 237 234 230 223 216 209 207
218 208 204 218 227 181 189 239 272 280 262 246 248 252 258 251 226 219 230 246 271 266 225 243 266 286 281 267 256 242 240 238 233 228 223 216 209 205
226 224 214 218 227 197 208 224 249 266 281 289 289 295 286 273 230 215 219 232 259 264 222 224 255 278 280 266 266 268 260 252 239 230 223 218 207 199
216 232 240 236 235 224 218 224 233 242 250 257 277 290 295 285 263 242 222 220 235 255 233 207 234 251 256 281 288 279 269 269 254 243 229 218 206 198
215 222 228 236 238 233 227 232 229 215 219 251 280 289 293 297 295 286 265 244 242 250 248 214 219 230 242 271 286 290 284 271 256 253 242 228 218 215
213 210 217 223 234 222 201 215 198 186 195 238 266 274 281 287 302 311 315 309 308 293 258 230 235 247 240 251 268 279 285 282 254 247 246 236 231 218
206 194 188 179 171 181 151 184 186 192 205 228 249 269 292 302 301 301 292 307 307 314 316 290 253 236 257 268 262 270 272 264 262 254 252 254 241 223
164 149 142 146 156 149 166 207 201 202 218 229 240 263 281 291 295 297 272 274 273 288 305 322 327 305 278 260 270 273 273 272 260 247 251 256 254 240
154 174 195 203 206 210 219 232 225 219 223 226 236 252 269 279 289 294 282 272 280 284 285 289 306 318 314 303 256 262 271 273 272 251 247 252 263 256
161 194 205 212 215 211 214 223 240 243 233 227 232 240 252 265 272 280 287 289 289 290 291 290 279 268 280 292 295 254 262 275 275 264 258 255 260 261
176 198 207 210 207 206 213 222 232 234 228 228 234 240 240 250 265 275 279 283 286 293 301 302 289 271 260 270 282 296 270 261 266 264 269 269 270 270
194 217 223 214 204 204 220 225 221 228 237 238 240 241 240 240 254 265 272 273 273 284 291 291 286 278 275 268 276 290 300 275 253 257 256 261 271 265
196 208 220 203 201 208 215 222 233 247 258 262 263 260 255 249 255 260 260 264 266 267 276 286 297 297 274 262 275 287 297 309 297 267 249 237 240 237
218 211 203 195 227 232 229 234 241 256 262 267 267 266 262 261 264 263 264 263 266 270 277 287 297 291 272 263 272 283 292 302 311 315 302 276 255 257
Height
1536 1537 1537 1538 1539 1539 1539 1540 1540 1538 1536 1536 1537 1537 1537 1537 1536 1536 1535 1535 1534 1533 1533 1532 1532 1531 1531 1531 1531 1531 1531 1531 1531 1531 1532 1532 1532 1533
1532 1533 1533 1534 1534 1535 1535 1536 1536 1536 1533 1532 1533 1533 1533 1533 1532 1532 1531 1531 1530 1529 1529 1528 1528 1527 1527 1527 1527 1527 1527 1527 1527 1527 1527 1527 1528 1528
1528 1528 1528 1529 1530 1530 1531 1531 1531 1531 1530 1529 1529 1529 1529 1529 1528 1528 1527 1526 1526 1525 1525 1524 1524 1523 1523 1523 1523 1523 1522 1522 1522 1522 1522 1522 1523 1524
1523 1524 1524 1525 1525 1525 1526 1526 1527 1527 1526 1525 1525 1525 1525 1524 1524 1523 1523 1522 1521 1521 1520 1520 1519 1519 1519 1519 1518 1518 1518 1518 1518 1518 1517 1518 1518 1518
1519 1519 1519 1520 1520 1520 1521 1522 1522 1522 1522 1521 1520 1520 1520 1520 1519 1519 1518 1517 1517 1516 1515 1515 1515 1515 1514 1514 1514 1513 1513 1513 1513 1513 1513 1513 1513 1513
1514 1515 1515 1516 1516 1516 1516 1517 1517 1518 1518 1517 1517 1516 1516 1515 1515 1514 1513 1513 1512 1511 1511 1510 1510 1510 1510 1510 1509 1509 1509 1508 1508 1508 1508 1508 1508 1508
1509 1510 1510 1511 1511 1512 1512 1512 1512 1513 1513 1513 1512 1512 1511 1511 1510 1510 1509 1508 1507 1507 1506 1506 1505 1505 1505 1505 1504 1504 1504 1503 1503 1503 1503 1503 1503 1504
1504 1505 1505 1506 1506 1507 1508 1508 1508 1508 1508 1508 1508 1507 1507 1506 1506 1505 1504 1503 1502 1503 1501 1501 1501 1500 1500 1500 1500 1500 1499 1498 1498 1498 1498 1498 1498 1499
1500 1501 1501 1501 1502 1503 1503 1504 1504 1504 1504 1504 1503 1503 1502 1501 1501 1500 1500 1499 1498 1498 1497 1496 1496 1495 1495 1495 1495 1494 1494 1493 1493 1493 1493 1493 1493 1494
1496 1496 1497 1497 1498 1499 1499 1499 1500 1500 1500 1499 1499 1498 1498 1497 1496 1496 1495 1495 1494 1494 1493 1492 1491 1490 1490 1490 1490 1489 1489 1489 1488 1488 1488 1488 1488 1488
1492 1493 1493 1494 1494 1494 1495 1495 1495 1495 1496 1495 1495 1494 1494 1493 1492 1491 1490 1490 1488 1488 1489 1488 1486 1485 1485 1485 1484 1484 1484 1483 1483 1483 1483 1483 1483 1483
1488 1489 1489 1490 1490 1490 1491 1491 1491 1491 1491 1491 1490 1490 1489 1488 1488 1487 1486 1485 1484 1484 1483 1483 1482 1481 1479 1479 1479 1479 1478 1478 1478 1478 1478 1478 1478 1478
1483 1484 1485 1486 1487 1487 1487 1487 1487 1487 1487 1486 1486 1485 1484 1483 1483 1482 1481 1481 1480 1480 1480 1479 1478 1477 1476 1475 1474 1474 1474 1473 1472 1472 1472 1472 1473 1473
1479 1480 1481 1482 1482 1482 1483 1483 1482 1483 1483 1482 1481 1481 1480 1479 1478 1478 1477 1477 1477 1476 1476 1475 1474 1473 1472 1471 1470 1469 1469 1469 1468 1467 1467 1468 1468 1468
1476 1477 1477 1478 1478 1478 1478 1479 1479 1479 1478 1478 1477 1476 1476 1475 1475 1474 1473 1473 1472 1472 1471 1471 1470 1469 1469 1467 1466 1465 1464 1464 1463 1463 1462 1462 1462 1462
1472 1472 1473 1474 1474 1474 1474 1475 1475 1475 1474 1474 1474 1473 1472 1472 1470 1469 1469 1468 1467 1466 1467 1466 1466 1465 1464 1463 1462 1461 1460 1460 1459 1458 1457 1457 1458 1458
1467 1468 1468 1469 1469 1470 1470 1471 1471 1471 1471 1470 1470 1469 1468 1468 1467 1466 1465 1464 1463 1462 1461 1461 1461 1461 1460 1459 1458 1457 1456 1455 1454 1454 1453 1452 1453 1453
1463 1463 1464 1464 1465 1465 1466 1467 1467 1467 1467 1467 1466 1465 1465 1464 1464 1463 1462 1461 1459 1458 1457 1457 1457 1456 1455 1454 1455 1453 1451 1450 1449 1449 1448 1447 1447 1447
1459 1459 1460 1461 1462 1462 1463 1464 1464 1464 1463 1463 1462 1462 1461 1461 1460 1459 1458 1457 1456 1455 1455 1454 1453 1452 1450 1449 1448 1449 1448 1446 1444 1444 1443 1443 1442 1442
1456 1456 1457 1458 1459 1459 1460 1460 1460 1460 1460 1459 1459 1458 1458 1457 1457 1456 1455 1454 1453 1452 1451 1450 1450 1448 1447 1446 1444 1444 1444 1442 1440 1439 1438 1438 1437 1437
1453 1454 1455 1455 1456 1456 1457 1457 1457 1457 1456 1456 1455 1454 1454 1454 1453 1453 1452 1451 1450 1449 1448 1447 1447 1446 1445 1443 1441 1440 1440 1439 1438 1436 1434 1433 1432 1432
1452 1452 1453 1454 1454 1454 1454 1454 1454 1454 1453 1453 1452 1451 1451 1451 1450 1450 1449 1448 1448 1447 1445 1445 1444 1443 1441 1440 1438 1437 1435 1435 1434 1433 1432 1431 1429 1428
1451 1452 1452 1452 1452 1452 1452 1452 1451 1451 1451 1450 1449 1449 1449 1448 1447 1447 1446 1445 1444 1443 1442 1441 1440 1439 1438 1437 1436 1434 1433 1432 1430 1428 1428 1427 1427 1426